When you browse on this site, cookies collect data to enhance your experience and personalize the content and advertising you see.
Visit our Privacy Policy to learn more. By continuing to use the site, you agree to this use of cookies and data.
  • In Portugal
  • List of Countries
  • For 7 days
  • Water Temperature
  • Satellite Maps
  • Weather Map
  • Weather Widgets
  • user-avatar
    Login

    Hourly Weather Dikhil

    Today, 22 March, Friday

    Time Temperature Precipitation Wind Pressure Humidity
    00:00 +27°C° 0 mm 7 mps 716 mmHg 73%
    01:00 +27°C° 0 mm 6 mps 716 mmHg 74%
    02:00 +27°C° 0 mm 6 mps 716 mmHg 75%
    03:00 +26°C° 0 mm 5 mps 716 mmHg 76%
    04:00 +26°C° 0 mm 5 mps 716 mmHg 77%
    05:00 +26°C° 0 mm 5 mps 716 mmHg 78%
    06:00 +26°C° 0 mm 5 mps 717 mmHg 79%
    07:00 +27°C° 0 mm 5 mps 717 mmHg 73%
    08:00 +28°C° 0 mm 6 mps 718 mmHg 66%
    09:00 +29°C° 0 mm 6 mps 719 mmHg 59%
    10:00 +32°C° 0 mm 6 mps 718 mmHg 52%
    11:00 +34°C° 0 mm 6 mps 718 mmHg 44%
    12:00 +35°C° 0 mm 6 mps 718 mmHg 37%
    13:00 +36°C° 0 mm 6 mps 717 mmHg 36%
    14:00 +38°C° 0 mm 6 mps 717 mmHg 34%
    15:00 +40°C° 0 mm 7 mps 715 mmHg 32%
    16:00 +38°C° 0 mm 8 mps 715 mmHg 39%
    17:00 +35°C° 0 mm 8 mps 715 mmHg 46%
    18:00 +34°C° 0 mm 8 mps 714 mmHg 53%
    19:00 +33°C° 0 mm 8 mps 715 mmHg 57%
    20:00 +30°C° 0 mm 7 mps 715 mmHg 62%
    21:00 +29°C° 0 mm 7 mps 715 mmHg 67%
    22:00 +29°C° 0 mm 6 mps 716 mmHg 68%
    23:00 +28°C° 0 mm 6 mps 716 mmHg 69%

    Tomorrow, 23 March, Saturday

    Time Temperature Precipitation Wind Pressure Humidity
    00:00 +28°C° 0 mm 6 mps 716 mmHg 71%
    01:00 +27°C° 0 mm 6 mps 716 mmHg 72%
    02:00 +27°C° 0 mm 6 mps 716 mmHg 74%
    03:00 +27°C° 0 mm 5 mps 716 mmHg 75%
    04:00 +26°C° 0 mm 5 mps 716 mmHg 76%
    05:00 +26°C° 0 mm 5 mps 716 mmHg 77%
    06:00 +26°C° 0 mm 5 mps 716 mmHg 77%
    07:00 +27°C° 0 mm 5 mps 717 mmHg 70%
    08:00 +28°C° 0 mm 6 mps 717 mmHg 64%
    09:00 +29°C° 0 mm 6 mps 718 mmHg 57%
    10:00 +32°C° 0 mm 6 mps 718 mmHg 52%
    11:00 +33°C° 0 mm 6 mps 718 mmHg 46%
    12:00 +35°C° 0 mm 7 mps 717 mmHg 41%
    13:00 +35°C° 0 mm 6 mps 717 mmHg 41%
    14:00 +36°C° 0 mm 6 mps 716 mmHg 41%
    15:00 +36°C° 0 mm 6 mps 715 mmHg 40%
    16:00 +35°C° 0 mm 7 mps 715 mmHg 46%
    17:00 +34°C° 0 mm 7 mps 715 mmHg 51%
    18:00 +32°C° 0 mm 7 mps 715 mmHg 56%
    19:00 +32°C° 0 mm 7 mps 715 mmHg 61%
    20:00 +30°C° 0 mm 6 mps 716 mmHg 65%
    21:00 +29°C° 0 mm 6 mps 716 mmHg 70%
    22:00 +28°C° 0 mm 6 mps 716 mmHg 71%
    23:00 +28°C° 0 mm 6 mps 716 mmHg 72%

    Day after tomorrow, 24 March, Sunday

    Time Temperature Precipitation Wind Pressure Humidity
    00:00 +28°C° 0 mm 5 mps 716 mmHg 73%
    01:00 +27°C° 0 mm 5 mps 716 mmHg 74%
    02:00 +27°C° 0 mm 4 mps 715 mmHg 75%
    03:00 +27°C° 0 mm 4 mps 715 mmHg 75%
    04:00 +26°C° 0 mm 4 mps 715 mmHg 77%
    05:00 +26°C° 0 mm 4 mps 715 mmHg 78%
    06:00 +26°C° 0 mm 4 mps 715 mmHg 79%
    07:00 +27°C° 0 mm 4 mps 716 mmHg 72%
    08:00 +29°C° 0 mm 5 mps 716 mmHg 64%
    09:00 +30°C° 0 mm 5 mps 717 mmHg 56%
    10:00 +33°C° 0 mm 6 mps 717 mmHg 50%
    11:00 +34°C° 0 mm 6 mps 716 mmHg 43%
    12:00 +36°C° 0 mm 6 mps 716 mmHg 37%
    13:00 +38°C° 0 mm 7 mps 715 mmHg 37%
    14:00 +38°C° 0 mm 7 mps 714 mmHg 36%
    15:00 +38°C° 0 mm 8 mps 713 mmHg 36%
    16:00 +37°C° 0 mm 8 mps 713 mmHg 42%
    17:00 +34°C° 0 mm 8 mps 713 mmHg 49%
    18:00 +33°C° 0 mm 9 mps 713 mmHg 55%
    19:00 +32°C° 0 mm 8 mps 713 mmHg 59%
    20:00 +30°C° 0 mm 7 mps 714 mmHg 63%
    21:00 +29°C° 0 mm 6 mps 715 mmHg 67%
    22:00 +29°C° 0 mm 6 mps 715 mmHg 69%
    23:00 +28°C° 0 mm 6 mps 715 mmHg 71%

    25 March, Monday

    Time Temperature Precipitation Wind Pressure Humidity
    00:00 +28°C° 0 mm 6 mps 715 mmHg 73%
    01:00 +27°C° 0 mm 6 mps 714 mmHg 74%
    02:00 +27°C° 0 mm 6 mps 714 mmHg 75%
    03:00 +27°C° 0 mm 6 mps 713 mmHg 77%
    04:00 +27°C° 0 mm 6 mps 713 mmHg 78%
    05:00 +27°C° 0 mm 6 mps 714 mmHg 79%
    06:00 +26°C° 0 mm 6 mps 714 mmHg 79%
    07:00 +28°C° 0 mm 6 mps 714 mmHg 73%
    08:00 +29°C° 0 mm 7 mps 715 mmHg 66%
    09:00 +31°C° 0 mm 8 mps 716 mmHg 59%
    10:00 +33°C° 0 mm 8 mps 715 mmHg 53%
    11:00 +35°C° 0 mm 7 mps 715 mmHg 46%
    12:00 +36°C° 0 mm 7 mps 715 mmHg 40%
    13:00 +38°C° 0 mm 8 mps 714 mmHg 40%
    14:00 +38°C° 0 mm 8 mps 713 mmHg 40%
    15:00 +38°C° 0 mm 9 mps 712 mmHg 40%
    16:00 +37°C° 0 mm 9 mps 712 mmHg 46%
    17:00 +34°C° 0 mm 9 mps 712 mmHg 53%
    18:00 +33°C° 0 mm 9 mps 712 mmHg 59%
    19:00 +32°C° 0 mm 9 mps 713 mmHg 62%
    20:00 +31°C° 0 mm 9 mps 714 mmHg 66%
    21:00 +29°C° 0 mm 8 mps 714 mmHg 69%
    22:00 +29°C° 0 mm 8 mps 714 mmHg 71%
    23:00 +28°C° 0 mm 8 mps 714 mmHg 72%

    26 March, Tuesday

    Time Temperature Precipitation Wind Pressure Humidity
    00:00 +28°C° 0 mm 8 mps 714 mmHg 74%
    01:00 +28°C° 0 mm 8 mps 714 mmHg 74%
    02:00 +27°C° 0 mm 7 mps 714 mmHg 75%
    03:00 +27°C° 0 mm 6 mps 713 mmHg 75%
    04:00 +27°C° 0 mm 6 mps 714 mmHg 76%
    05:00 +26°C° 0 mm 6 mps 714 mmHg 77%
    06:00 +26°C° 0 mm 6 mps 715 mmHg 77%
    07:00 +28°C° 0 mm 6 mps 716 mmHg 71%
    08:00 +29°C° 0 mm 7 mps 716 mmHg 64%
    09:00 +30°C° 0 mm 7 mps 717 mmHg 58%
    10:00 +33°C° 0 mm 7 mps 717 mmHg 51%
    11:00 +35°C° 0 mm 6 mps 717 mmHg 44%
    12:00 +38°C° 0 mm 6 mps 716 mmHg 38%
    13:00 +38°C° 0 mm 6 mps 716 mmHg 38%
    14:00 +39°C° 0 mm 7 mps 715 mmHg 38%
    15:00 +39°C° 0 mm 8 mps 715 mmHg 38%
    16:00 +37°C° 0 mm 8 mps 715 mmHg 44%
    17:00 +35°C° 0 mm 8 mps 715 mmHg 51%
    18:00 +33°C° 0 mm 9 mps 715 mmHg 58%
    19:00 +32°C° 0 mm 8 mps 716 mmHg 62%
    20:00 +31°C° 0 mm 8 mps 716 mmHg 66%
    21:00 +30°C° 0 mm 7 mps 717 mmHg 69%
    22:00 +29°C° 0 mm 7 mps 717 mmHg 70%
    23:00 +29°C° 0 mm 6 mps 717 mmHg 71%

    27 March, Wednesday

    Time Temperature Precipitation Wind Pressure Humidity
    00:00 +28°C° 0 mm 6 mps 717 mmHg 72%
    01:00 +28°C° 0 mm 6 mps 716 mmHg 73%
    02:00 +28°C° 0 mm 5 mps 716 mmHg 75%
    03:00 +27°C° 0 mm 5 mps 716 mmHg 76%
    04:00 +27°C° 0 mm 5 mps 717 mmHg 76%
    05:00 +27°C° 0 mm 5 mps 717 mmHg 77%
    06:00 +27°C° 0 mm 5 mps 718 mmHg 77%
    07:00 +28°C° 0 mm 6 mps 719 mmHg 72%
    08:00 +29°C° 0 mm 6 mps 719 mmHg 66%
    09:00 +30°C° 0 mm 6 mps 720 mmHg 61%
    10:00 +32°C° 0 mm 6 mps 720 mmHg 56%
    11:00 +34°C° 0 mm 6 mps 719 mmHg 51%
    12:00 +35°C° 0 mm 6 mps 719 mmHg 46%
    13:00 +36°C° 0 mm 6 mps 718 mmHg 44%
    14:00 +38°C° 0 mm 6 mps 718 mmHg 42%
    15:00 +37°C° 0 mm 5 mps 717 mmHg 40%
    16:00 +36°C° 0 mm 6 mps 717 mmHg 44%
    17:00 +35°C° 0 mm 6 mps 717 mmHg 47%
    18:00 +35°C° 0 mm 7 mps 718 mmHg 50%
    19:00 +34°C° 0 mm 6 mps 718 mmHg 54%
    20:00 +33°C° 0 mm 6 mps 718 mmHg 58%
    21:00 +32°C° 0 mm 6 mps 719 mmHg 62%
    22:00 +30°C° 0 mm 5 mps 718 mmHg 64%
    23:00 +30°C° 0 mm 5 mps 718 mmHg 66%
    Show more